Lake Worth, FL (33460)

3:49 PM EDT on August 24, 2016 (GMT -0400)
NOS_NWLON | | Change Station

Elev 0 ft 26.61 °N, 80.03 °W | Updated 31 minutes ago

Scattered Clouds
Scattered Clouds
85 °F
Feels Like 82 °F
N
Wind Variable Wind from North
Gusts 0.0 mph

Today
High -- | Low -- °F
--% Chance of Precip.
Yesterday
High -- | Low -- °F
Precip. -- in
Pressure 30.05 in
Visibility 10.0 miles
Clouds Scattered Clouds 2600 ft
Scattered Clouds 3600 ft
Scattered Clouds 5500 ft
Heat Index 82 °F
Dew Point Not available.
Humidity Not available.
Rainfall in
Snow Depth Not available.
6:56 AM 7:47 PM
Waning Gibbous, 54% visible
METAR KPBI 241853Z 04013KT 10SM SCT026 SCT036 SCT055 34/24 A3005 RMK AO2 LTG DSNT N AND NE SLP174 CB DSNT ALQDS T03390239
Pressure 30.05 in
Visibility 10.0 miles
Clouds Scattered Clouds 2600 ft
Scattered Clouds 3600 ft
Scattered Clouds 5500 ft
Heat Index 82 °F
Dew Point Not available.
Humidity Not available.
Rainfall in
Snow Depth Not available.
6:56 AM 7:47 PM
Waning Gibbous, 54% visible
METAR KPBI 241853Z 04013KT 10SM SCT026 SCT036 SCT055 34/24 A3005 RMK AO2 LTG DSNT N AND NE SLP174 CB DSNT ALQDS T03390239
A tropical disturbance we've monitored since last week, may have a dangerous future in store for the southeast U.S. and Gulf coasts this weekend into next week. The National Weather Service has issued a flash flood watch for Puerto Rico and the U.S. Virgin Islands. Rainfall totals of 2-4 inches (locally higher) are expected through Wednesday night in those areas.

The National Hurricane Center says this system has a medium to high chance of development into a tropical depression or tropical storm over the next 2 to 5 days. A tight consensus of our guidance suggests the disturbance should continue in a general west or west-northwest trajectory the next several days.

10-Day Weather Forecast

Almanac

Astronomy

Aug. 24, 2016 Rise Set
Actual Time
Civil Twilight
Nautical Twilight
Astronomical Twilight
Moon
Length of Visible Light
Length of Day
Tomorrow will be .
, % of the Moon is Illuminated

Today's Extremes

State Highs State Lows

Community

WunderPhotos

Upload Photos

1,934,690 photos uploaded!

WunderBlog® & News

Nearby

Air Quality

  Air Quality AQ Index Pollutant
Not available.

Snow Depth

Station Depth Elevation

Earthquake Activity

City Distance Mag. Time & Date
Minimum magnitude displayed is 2.5.

Coastal Water Temperatures

Place Temperature

Stations

Nearby Weather Stations

Station Location Temp. Windchill Dew Point Humidity Wind Precip. Elev Updated Type
                   

Watches & Warnings

There are currently no watches in effect.